CZ-6A DEB

Satellite information

Favourite Embed

Satellite Type and Status

DEBRISIN ORBIT

Key statistics

Satellite CZ-6A DEB at a glance.

Uptime

274

Days in orbit

Revolutions

≈ 14.3

Per day

Orbit

LEO

Low Earth Orbit

Inclination

88.9

Latest

Satellite identification and parameters

Extended collection of information and parameters for CZ-6A DEB.

Object identification

Identified? True

Debris? True

Object name: CZ-6A DEB

International designator: 2024-140ADF

Object number (NORAD): 61839

Object ID (CCSDS): 61839

Country: PEOPLES REPUBLIC OF CHINA (PRC)

Current information (Y/N): Y

RCS size: SMALL

Orbital parameters

Period: 100.5 minutes

Inclination: 88.9365 deg

SMA: 7160.405 km

Apoapsis: 799.101 km

Periapsis: 765.438 km

RAAN: 318.1694 deg

Eccentricy: 0.0023506

Argument of periapsis: 342.9424 deg

Mean anomaly: 17.098 deg

Mean motion: 14.32835804 rev/day

Mean motion (dot): 0.00005164 rev/day2

B* drag term: 0.0018825 1/REarth

Two-line elements (TLE)

Creation date: May 5, 2025, 2:11 a.m.

Reference frame: TEME

Reference center: EARTH

Epoch: May 4, 2025, 7:45 p.m. UTC

TLE line 0: 0 CZ-6A DEB

TLE line 1: 1 61839U 24140ADF 25124.82311174 .00005164 00000-0 18825-2 0 9991

TLE line 2: 2 61839 88.9365 318.1694 0023506 342.9424 17.0980 14.32835804 37928

Live tracking on map

Real-time ground track for satellite CZ-6A DEB.

In-orbit conjunctions

A list of the most updated potential collisions computed for object CZ-6A DEB.

Target Orbit TCA Probability of collision Miss distance Type
FENGYUN 1C DEB SSO 2025-02-22 17:19:34 0.0002050926 891.0 (m) DEBRIS
FENGYUN 1C DEB SSO 2025-01-27 05:19:16 0.0001877693 143.0 (m) DEBRIS
COSMOS 2251 DEB LEO 2025-01-25 19:34:49 0.0001486613 241.0 (m) DEBRIS
NOAA 16 DEB SSO 2024-12-18 02:32:11 0.0002071488 595.0 (m) DEBRIS
FENGYUN 1C DEB SSO 2024-11-17 04:36:50 0.0004372681 188.0 (m) DEBRIS

Associated space launch

18 Low Earth Orbit communication satellites with Ku, Q and V band payloads for the G60 constellation operated by Shanghai Spacecom Satellite Technology (SSST) with funding backed by the Shanghai local government. Initial constellation will consist of 1296 satellites by 2027 with long term plans to expand it to 12000 satellites.

CZ-6A DEB was lifted into orbit during the mission ‘Long March 6A | G60 Polar Group 01’, on board a Long March 6A space rocket.

The launch took place on Aug. 6, 2024, 6:42 a.m. from Launch Complex 9A.

For more information about the launch, click the button.

Launch to space Long March 6A | G60 Polar Group 01
Long March 6A | G60 Polar Group 01

Agency: N/A

Status: Launch Successful

Launch date: Aug. 6, 2024, 6:42 a.m. UTC

Rocket: Long March 6A

Launch pad: Launch Complex 9A

Location: Taiyuan Satellite Launch Center, People's Republic of China

...

Latest news about this satellite

News about space launch
Brightness of first Chinese broadband constellation satellites alarms astronomers

The first satellites of a Chinese broadband constellation are significantly brighter than those of Western systems, posing a new challenge for astronomers.

News about space launch
Chinese rocket stage breaks up into cloud of more than 700 pieces of space debris

HELSINKI — A Chinese Long March 6A rocket’s upper stage has fragmented into a cloud of over 700 pieces of space debris, adding to concerns about long-term orbital safety. China […]

News about space launch
China's Thousand Sails Megaconstellation Kicks Off with Dangerous Debris Field

China's Thousand Sails Megaconstellation Kicks Off with Dangerous Debris Field


Newsletter sign-up

Weekly statistics, charts and insights to help you stay on top of the space industry.